Content
SEND FEEDBACK

Daily
Averages
Monthly
Summary
United States of America

SAN FRANCISCO, CALIFORNIA


Home > North America > United States > California
Elevation: 128 feet     Latitude: 37 46N     Longitude: 122 26W

WEATHER
 
SELECT A DAY
Number of Records: 184,682;   Date Range: 1/1/95 - 7/7/14
 
SHARE

PRINT THIS DATA

[ ← Previous Day ]
WEATHER ALMANAC - FEBRUARY 14, 2013
[ Next Day → ]
[ °C ]   °F
Weather ElementAverageHighLow
Temperature52.6 °F66.9 °F (3:56 pm)43 °F (5:56 am)
Dewpoint42.3 °F46.9 °F (11:56 am)39 °F (1:56 am)
Humidity70.9 %93 % (3:19 am)39 % (3:56 pm)
Barometer30.21 in30.25 in (7:56 am)30.16 in (4:56 pm)
Wind Speed3.7 mph10.4 mph (4:56 pm)
Weather ElementAverage
Visibility9.4 mi
Wind DirectionESE (115.4 °)

Weather ElementTotal
Precipitation---
Heating Degree Days10.1 (Base 65)
Growing Degree Days5 (Base 50)
Averaged from 26 records on February 14, 2013
WEATHER CONDITIONS BREAKOUT
WIND DIRECTION BREAKOUT
WEATHER BY HOUR - FEBRUARY 14, 2013
[ °C ]   °F
Local TimeTemperatureDewpointHumidityBarometerVisibilityWind DirectionWind SpeedGust SpeedPrecipitationEventsConditions
1:56 AM44.1 °F39.0 °F82 %30.24 in10.0 miCalmPartly Cloudy
2:56 AM45.0 °F41.0 °F86 %30.23 in10.0 miSouth (170°)4.6 mphPartly Cloudy
3:19 AM44.6 °F42.8 °F93 %30.23 in10.0 miSouth (180°)3.5 mphScattered Clouds
3:32 AM44.6 °F42.8 °F93 %30.22 in9.0 miSouth (170°)4.6 mphMostly Cloudy
3:56 AM46.4 °F42.8 °F87 %30.22 in6.0 miSSE (160°)5.8 mphMostly Cloudy
4:13 AM46.4 °F42.8 °F87 %30.22 in6.0 miSSE (160°)5.8 mphPartly Cloudy
4:56 AM46.0 °F43.0 °F89 %30.23 in8.0 miSE (140°)3.5 mphPartly Cloudy
5:56 AM43.0 °F39.9 °F89 %30.23 in10.0 miCalmClear
6:56 AM43.0 °F41.0 °F93 %30.24 in10.0 miSSW (210°)3.5 mphPartly Cloudy
7:56 AM46.0 °F43.0 °F89 %30.25 in9.0 miCalmPartly Cloudy
8:56 AM50.0 °F45.0 °F83 %30.25 in8.0 miSE (140°)3.5 mphPartly Cloudy
9:56 AM51.1 °F46.0 °F83 %30.25 in9.0 miENE (60°)4.6 mphPartly Cloudy
10:56 AM55.0 °F45.0 °F69 %30.24 in10.0 miENE (60°)5.8 mphClear
11:56 AM55.9 °F46.9 °F72 %30.23 in10.0 miEast (90°)4.6 mphPartly Cloudy
12:56 PM62.1 °F43.0 °F50 %30.21 in10.0 miNE (50°)3.5 mphClear
1:56 PM64.9 °F39.9 °F40 %30.18 in10.0 miEast (80°)3.5 mphClear
2:56 PM64.9 °F39.9 °F40 %30.17 in10.0 miSSE (160°)3.5 mphClear
3:56 PM66.9 °F41.0 °F39 %30.17 in10.0 miNW (310°)5.8 mphClear
4:56 PM63.0 °F42.1 °F46 %30.16 in10.0 miWNW (290°)10.4 mphClear
5:56 PM57.9 °F39.9 °F51 %30.17 in10.0 miWNW (290°)9.2 mphClear
6:56 PM55.9 °F39.9 °F55 %30.18 in10.0 miWest (280°)10.4 mphClear
7:56 PM57.9 °F41.0 °F53 %30.18 in10.0 miCalmClear
8:56 PM55.9 °F42.1 °F60 %30.20 in10.0 miCalmClear
9:56 PM54.0 °F46.0 °F75 %30.20 in10.0 miCalmClear
10:56 PM53.1 °F42.1 °F66 %30.21 in10.0 miCalmClear
11:56 PM51.1 °F43.0 °F74 %30.22 in10.0 miCalmClear
Hourly data recorded from KSFO, located miles away from San Francisco, California







STORIES FROM OUR PARTNERS